SWA2862 KSEA-KSMF

Flight info

Callsign SWA2862
Flight time 1h 19m
Altitude 37000
Route SUMMA2 SUMMA JINMO LMT TUDOR2
Aircraft B738/M-SADE2E3GIJ4RWZ/LB1D1

Departure

Time 2026-05-01 07:37
Airport Seattle–Tacoma International Airport (KSEA)

Arrival

Time 2026-05-01 08:57
Airport Sacramento International Airport (KSMF)
Time Latitude Longitude Altitude Speed Heading
2026-05-01 07:29 47.44272 -122.30416 395 ft 0 kts 142°
2026-05-01 07:31 47.44274 -122.30418 395 ft 3 kts 131°
2026-05-01 07:31 47.44277 -122.30452 388 ft 0 kts 50°
2026-05-01 07:33 47.44279 -122.30449 387 ft 1 kts 49°
2026-05-01 07:33 47.44299 -122.30480 394 ft 9 kts 293°
2026-05-01 07:34 47.44287 -122.30559 390 ft 7 kts 229°
2026-05-01 07:34 47.44166 -122.30619 392 ft 12 kts 191°
2026-05-01 07:34 47.44074 -122.30635 393 ft 14 kts 181°
2026-05-01 07:35 47.43969 -122.30633 393 ft 16 kts 179°
2026-05-01 07:35 47.43855 -122.30633 388 ft 17 kts 180°
2026-05-01 07:35 47.43734 -122.30636 391 ft 18 kts 181°
2026-05-01 07:35 47.43613 -122.30607 394 ft 18 kts 153°
2026-05-01 07:36 47.43496 -122.30560 393 ft 18 kts 178°
2026-05-01 07:36 47.43370 -122.30560 394 ft 19 kts 180°
2026-05-01 07:36 47.43240 -122.30576 394 ft 19 kts 199°
2026-05-01 07:36 47.43174 -122.30713 393 ft 17 kts 273°
2026-05-01 07:37 47.43867 -122.30800 393 ft 118 kts
2026-05-01 07:37 47.44858 -122.30796 599 ft 161 kts
2026-05-01 07:37 47.46060 -122.30854 1106 ft 180 kts 355°
2026-05-01 07:38 47.47380 -122.30966 1559 ft 197 kts 359°
2026-05-01 07:38 47.48780 -122.30978 2411 ft 206 kts
2026-05-01 07:38 47.51310 -122.30964 3232 ft 231 kts
2026-05-01 07:39 47.53567 -122.30965 3877 ft 254 kts
2026-05-01 07:39 47.54762 -122.30966 4214 ft 264 kts
2026-05-01 07:39 47.58866 -122.29470 5849 ft 275 kts 50°
2026-05-01 07:40 47.59668 -122.26948 6578 ft 274 kts 86°
2026-05-01 07:40 47.59352 -122.24208 7275 ft 273 kts 121°
2026-05-01 07:40 47.58039 -122.22246 7972 ft 272 kts 155°
2026-05-01 07:40 47.56821 -122.21736 8434 ft 272 kts 178°
2026-05-01 07:41 47.54989 -122.22385 9126 ft 276 kts 212°
2026-05-01 07:41 47.53664 -122.24440 9842 ft 280 kts 236°
2026-05-01 07:41 47.51283 -122.29100 10879 ft 295 kts 211°
2026-05-01 07:42 47.49303 -122.30017 11208 ft 311 kts 181°
2026-05-01 07:42 47.47138 -122.29343 11470 ft 330 kts 159°
2026-05-01 07:42 47.45021 -122.27890 11666 ft 348 kts 155°
2026-05-01 07:42 47.42788 -122.26345 12019 ft 359 kts 158°
2026-05-01 07:43 47.40418 -122.25088 12512 ft 365 kts 166°
2026-05-01 07:43 47.37918 -122.24281 13076 ft 369 kts 171°
2026-05-01 07:43 47.32813 -122.22819 14252 ft 377 kts 168°
2026-05-01 07:44 47.27678 -122.20933 15397 ft 383 kts 168°
2026-05-01 07:44 47.22445 -122.19217 16532 ft 388 kts 168°
2026-05-01 07:45 47.19801 -122.18308 17090 ft 391 kts 168°
2026-05-01 07:45 47.17141 -122.17391 17622 ft 394 kts 168°
2026-05-01 07:45 47.14454 -122.16483 18139 ft 398 kts 168°
2026-05-01 07:45 47.11748 -122.15574 18614 ft 401 kts 168°
2026-05-01 07:46 47.09013 -122.14650 19073 ft 405 kts 168°
2026-05-01 07:46 47.06256 -122.13715 19522 ft 408 kts 168°
2026-05-01 07:46 47.00677 -122.11835 20390 ft 415 kts 168°
2026-05-01 07:47 46.97883 -122.10895 20804 ft 419 kts 168°
2026-05-01 07:47 46.95026 -122.09934 21219 ft 423 kts 168°
2026-05-01 07:47 46.92146 -122.08966 21619 ft 426 kts 168°
2026-05-01 07:47 46.89245 -122.07993 22016 ft 430 kts 168°
2026-05-01 07:48 46.83358 -122.06021 22778 ft 438 kts 169°
2026-05-01 07:48 46.80374 -122.05026 23135 ft 442 kts 169°
2026-05-01 07:48 46.77360 -122.04020 23502 ft 446 kts 168°
2026-05-01 07:49 46.74324 -122.03003 23820 ft 450 kts 168°
2026-05-01 07:49 46.68172 -122.00955 24424 ft 457 kts 168°
2026-05-01 07:49 46.65059 -121.99922 24729 ft 460 kts 168°
2026-05-01 07:50 46.61905 -121.99098 25058 ft 461 kts 179°
2026-05-01 07:50 46.55772 -122.01243 25706 ft 461 kts 205°
2026-05-01 07:50 46.52879 -122.03281 26032 ft 462 kts 208°
2026-05-01 07:51 46.50004 -122.05399 26356 ft 465 kts 208°
2026-05-01 07:51 46.47032 -122.07298 26670 ft 468 kts 202°
2026-05-01 07:51 46.43952 -122.08867 26998 ft 471 kts 200°
2026-05-01 07:52 46.37744 -122.12044 27619 ft 475 kts 199°
2026-05-01 07:52 46.34459 -122.12734 27950 ft 481 kts 183°
2026-05-01 07:52 46.31108 -122.12516 28267 ft 485 kts 176°
2026-05-01 07:53 46.24379 -122.11168 28872 ft 489 kts 174°
2026-05-01 07:53 46.21001 -122.10707 29308 ft 487 kts 179°
2026-05-01 07:53 46.17619 -122.10537 29697 ft 485 kts 181°
2026-05-01 07:53 46.14293 -122.10328 30075 ft 486 kts 178°
2026-05-01 07:54 46.07550 -122.09485 30719 ft 486 kts 178°
2026-05-01 07:55 45.97430 -122.08555 31595 ft 486 kts 178°
2026-05-01 07:55 45.90665 -122.07837 32172 ft 487 kts 179°
2026-05-01 07:56 45.80503 -122.06843 32959 ft 488 kts 178°
2026-05-01 07:56 45.73733 -122.06169 33485 ft 489 kts 179°
2026-05-01 07:57 45.70341 -122.05839 33767 ft 489 kts 179°
2026-05-01 07:57 45.63540 -122.05160 34251 ft 490 kts 179°
2026-05-01 07:58 45.56774 -122.04496 34730 ft 489 kts 179°
2026-05-01 07:58 45.49991 -122.03827 35257 ft 488 kts 179°
2026-05-01 07:59 45.43206 -122.03162 35757 ft 488 kts 179°
2026-05-01 07:59 45.36437 -122.02499 36229 ft 487 kts 179°
2026-05-01 08:00 45.22902 -122.01178 37080 ft 485 kts 179°
2026-05-01 08:01 45.09674 -121.99894 37072 ft 475 kts 179°
2026-05-01 08:02 44.99790 -121.98938 37092 ft 475 kts 179°
2026-05-01 08:03 44.89893 -121.97984 37091 ft 475 kts 179°
2026-05-01 08:03 44.79988 -121.97032 37094 ft 475 kts 179°
2026-05-01 08:04 44.66779 -121.95768 37097 ft 477 kts 179°
2026-05-01 08:05 44.56814 -121.94819 37096 ft 477 kts 179°
2026-05-01 08:06 44.46860 -121.93875 37089 ft 478 kts 179°
2026-05-01 08:07 44.33572 -121.92618 37079 ft 480 kts 180°
2026-05-01 08:08 44.23620 -121.91680 37076 ft 480 kts 180°
2026-05-01 08:09 44.10289 -121.90429 37071 ft 480 kts 180°
2026-05-01 08:09 44.03629 -121.89806 37074 ft 480 kts 180°
2026-05-01 08:10 43.90281 -121.88563 37070 ft 482 kts 180°
2026-05-01 08:11 43.76936 -121.87325 37074 ft 482 kts 180°
2026-05-01 08:12 43.66858 -121.86392 37070 ft 483 kts 180°
2026-05-01 08:13 43.56789 -121.85466 37068 ft 483 kts 180°
2026-05-01 08:13 43.46687 -121.84538 37078 ft 485 kts 180°
2026-05-01 08:14 43.39959 -121.83923 37054 ft 485 kts 180°
2026-05-01 08:14 43.33218 -121.83307 37068 ft 486 kts 180°
2026-05-01 08:15 43.23083 -121.82384 37069 ft 485 kts 181°
2026-05-01 08:16 43.16333 -121.81770 37072 ft 485 kts 181°
2026-05-01 08:16 43.09573 -121.81159 37080 ft 488 kts 181°
2026-05-01 08:17 43.02841 -121.80548 37081 ft 487 kts 181°
2026-05-01 08:17 42.96076 -121.79939 37083 ft 488 kts 181°
2026-05-01 08:18 42.89285 -121.79327 37083 ft 489 kts 181°
2026-05-01 08:19 42.75763 -121.78114 37078 ft 486 kts 181°
2026-05-01 08:19 42.69040 -121.77513 37065 ft 488 kts 181°
2026-05-01 08:20 42.62269 -121.76908 37065 ft 488 kts 181°
2026-05-01 08:20 42.55480 -121.76303 37048 ft 488 kts 181°
2026-05-01 08:21 42.48713 -121.75702 37080 ft 489 kts 181°
2026-05-01 08:21 42.41945 -121.75101 37078 ft 487 kts 181°
2026-05-01 08:22 42.35178 -121.74504 37078 ft 486 kts 181°
2026-05-01 08:22 42.28445 -121.73910 37082 ft 489 kts 181°
2026-05-01 08:23 42.21650 -121.73310 37069 ft 489 kts 181°
2026-05-01 08:23 42.14876 -121.72764 37120 ft 483 kts 185°
2026-05-01 08:24 42.08149 -121.72717 37129 ft 483 kts 185°
2026-05-01 08:24 42.01421 -121.72687 37119 ft 483 kts 186°
2026-05-01 08:25 41.94686 -121.72655 37110 ft 483 kts 185°
2026-05-01 08:25 41.87928 -121.72622 37098 ft 485 kts 186°
2026-05-01 08:26 41.81236 -121.72589 37085 ft 483 kts 186°
2026-05-01 08:26 41.74508 -121.72559 37089 ft 483 kts 186°
2026-05-01 08:27 41.68859 -121.72533 37089 ft 485 kts 186°
2026-05-01 08:27 41.61019 -121.72493 37089 ft 485 kts 186°
2026-05-01 08:28 41.55404 -121.72468 37094 ft 485 kts 186°
2026-05-01 08:28 41.48634 -121.72437 37092 ft 488 kts 186°
2026-05-01 08:29 41.41849 -121.72403 37094 ft 488 kts 186°
2026-05-01 08:29 41.35062 -121.72372 37095 ft 488 kts 186°
2026-05-01 08:30 41.28261 -121.72340 37090 ft 488 kts 186°
2026-05-01 08:30 41.21470 -121.72307 37074 ft 486 kts 186°
2026-05-01 08:31 41.14722 -121.72276 37065 ft 485 kts 186°
2026-05-01 08:31 41.07965 -121.72245 37061 ft 485 kts 186°
2026-05-01 08:32 41.01260 -121.72212 37071 ft 481 kts 186°
2026-05-01 08:32 40.94513 -121.72185 37047 ft 486 kts 186°
2026-05-01 08:33 40.87747 -121.72149 37038 ft 485 kts 186°
2026-05-01 08:33 40.81007 -121.72120 37029 ft 483 kts 186°
2026-05-01 08:34 40.74270 -121.72089 37037 ft 485 kts 186°
2026-05-01 08:34 40.67532 -121.72056 37029 ft 480 kts 186°
2026-05-01 08:34 40.64186 -121.72039 36568 ft 479 kts 186°
2026-05-01 08:35 40.60849 -121.72028 35980 ft 480 kts 185°
2026-05-01 08:35 40.57509 -121.72014 35286 ft 481 kts 185°
2026-05-01 08:35 40.54196 -121.71997 34619 ft 482 kts 185°
2026-05-01 08:35 40.50834 -121.71981 33948 ft 483 kts 185°
2026-05-01 08:36 40.47468 -121.71966 33142 ft 485 kts 184°
2026-05-01 08:36 40.44089 -121.71924 32362 ft 487 kts 181°
2026-05-01 08:36 40.40699 -121.71652 31572 ft 489 kts 180°
2026-05-01 08:36 40.37291 -121.71381 30749 ft 490 kts 180°
2026-05-01 08:37 40.33872 -121.71099 29911 ft 492 kts 179°
2026-05-01 08:37 40.30445 -121.70794 28944 ft 494 kts 179°
2026-05-01 08:37 40.27013 -121.70488 27967 ft 495 kts 179°
2026-05-01 08:37 40.23572 -121.70194 26978 ft 496 kts 179°
2026-05-01 08:38 40.20122 -121.69905 25981 ft 497 kts 178°
2026-05-01 08:38 40.16664 -121.69608 25083 ft 497 kts 178°
2026-05-01 08:38 40.13245 -121.69307 24444 ft 489 kts 178°
2026-05-01 08:38 40.09909 -121.69020 23738 ft 484 kts 178°
2026-05-01 08:39 40.06570 -121.68738 23000 ft 478 kts 178°
2026-05-01 08:39 40.03259 -121.68456 22251 ft 473 kts 178°
2026-05-01 08:39 39.99990 -121.68174 21496 ft 467 kts 178°
2026-05-01 08:39 39.96761 -121.67897 20763 ft 462 kts 178°
2026-05-01 08:40 39.90400 -121.67355 19332 ft 453 kts 178°
2026-05-01 08:40 39.87265 -121.67088 18682 ft 448 kts 178°
2026-05-01 08:40 39.84164 -121.66825 17988 ft 444 kts 177°
2026-05-01 08:41 39.81106 -121.66565 17279 ft 439 kts 177°
2026-05-01 08:41 39.78116 -121.66310 16583 ft 434 kts 177°
2026-05-01 08:41 39.75119 -121.66054 15933 ft 428 kts 177°
2026-05-01 08:41 39.72169 -121.65805 15299 ft 422 kts 177°
2026-05-01 08:42 39.69254 -121.65559 14672 ft 417 kts 177°
2026-05-01 08:42 39.66376 -121.65315 14059 ft 411 kts 177°
2026-05-01 08:42 39.63529 -121.65073 13414 ft 406 kts 176°
2026-05-01 08:42 39.60727 -121.64837 12741 ft 401 kts 176°
2026-05-01 08:43 39.57961 -121.64603 12097 ft 396 kts 176°
2026-05-01 08:43 39.55257 -121.64375 11400 ft 371 kts 176°
2026-05-01 08:43 39.52726 -121.64164 10445 ft 347 kts 176°
2026-05-01 08:43 39.50493 -121.63978 10500 ft 311 kts 175°
2026-05-01 08:44 39.48339 -121.63793 10627 ft 310 kts 176°
2026-05-01 08:44 39.46230 -121.63613 10721 ft 296 kts 176°
2026-05-01 08:44 39.44194 -121.63442 10729 ft 293 kts 176°
2026-05-01 08:44 39.42174 -121.63273 10639 ft 288 kts 175°
2026-05-01 08:45 39.40199 -121.63107 10539 ft 280 kts 175°
2026-05-01 08:45 39.38275 -121.62946 10440 ft 275 kts 175°
2026-05-01 08:45 39.36358 -121.62784 10339 ft 279 kts 175°
2026-05-01 08:45 39.34394 -121.62618 10246 ft 283 kts 175°
2026-05-01 08:46 39.32440 -121.62455 10095 ft 280 kts 175°
2026-05-01 08:46 39.30490 -121.62293 9767 ft 281 kts 175°
2026-05-01 08:46 39.28539 -121.62128 9439 ft 280 kts 175°
2026-05-01 08:46 39.26592 -121.61965 9127 ft 280 kts 175°
2026-05-01 08:47 39.24651 -121.61803 8822 ft 279 kts 175°
2026-05-01 08:47 39.22737 -121.61643 8519 ft 279 kts 175°
2026-05-01 08:47 39.20800 -121.61482 8212 ft 278 kts 175°
2026-05-01 08:47 39.18865 -121.61321 7915 ft 278 kts 175°
2026-05-01 08:48 39.16937 -121.61161 7605 ft 278 kts 175°
2026-05-01 08:48 39.15010 -121.61001 7306 ft 278 kts 175°
2026-05-01 08:48 39.13084 -121.60841 6999 ft 277 kts 175°
2026-05-01 08:48 39.11156 -121.60681 6703 ft 277 kts 175°
2026-05-01 08:49 39.09227 -121.60521 6406 ft 277 kts 175°
2026-05-01 08:49 39.07324 -121.60364 6097 ft 278 kts 175°
2026-05-01 08:49 39.05398 -121.60204 5796 ft 277 kts 175°
2026-05-01 08:49 39.03476 -121.60045 5492 ft 277 kts 175°
2026-05-01 08:50 39.01557 -121.59886 5201 ft 276 kts 175°
2026-05-01 08:50 38.99640 -121.59728 4901 ft 276 kts 176°
2026-05-01 08:50 38.97737 -121.59464 4601 ft 275 kts 172°
2026-05-01 08:50 38.95834 -121.59238 4291 ft 274 kts 176°
2026-05-01 08:51 38.93933 -121.59074 4009 ft 273 kts 175°
2026-05-01 08:51 38.92067 -121.58852 3758 ft 257 kts 174°
2026-05-01 08:51 38.90393 -121.58616 3491 ft 227 kts 171°
2026-05-01 08:51 38.88964 -121.58168 3239 ft 194 kts 166°
2026-05-01 08:52 38.87758 -121.57859 3021 ft 159 kts 172°
2026-05-01 08:52 38.86744 -121.57748 2870 ft 141 kts 179°
2026-05-01 08:52 38.85759 -121.57740 2728 ft 139 kts 181°
2026-05-01 08:52 38.84817 -121.57757 2589 ft 137 kts 181°
2026-05-01 08:53 38.83865 -121.57773 2480 ft 133 kts 182°
2026-05-01 08:53 38.82915 -121.57791 2355 ft 138 kts 182°
2026-05-01 08:53 38.81967 -121.57807 2123 ft 135 kts 182°
2026-05-01 08:53 38.81033 -121.57824 1890 ft 134 kts 181°
2026-05-01 08:54 38.80109 -121.57843 1644 ft 131 kts 181°
2026-05-01 08:54 38.79201 -121.57861 1376 ft 128 kts 181°
2026-05-01 08:54 38.78321 -121.57882 1153 ft 122 kts 181°
2026-05-01 08:54 38.77467 -121.57900 1072 ft 125 kts 182°
2026-05-01 08:55 38.76582 -121.57919 982 ft 127 kts 180°
2026-05-01 08:55 38.75688 -121.57947 878 ft 128 kts 180°
2026-05-01 08:55 38.74820 -121.57960 714 ft 124 kts 179°
2026-05-01 08:55 38.73968 -121.57974 549 ft 121 kts 180°
2026-05-01 08:56 38.73120 -121.57986 409 ft 121 kts 178°
2026-05-01 08:56 38.72278 -121.57983 298 ft 119 kts 178°
2026-05-01 08:56 38.71457 -121.58003 167 ft 116 kts 179°
2026-05-01 08:56 38.70651 -121.58013 54 ft 112 kts 179°
2026-05-01 08:57 38.69981 -121.58017 35 ft 80 kts 181°
2026-05-01 08:57 38.69515 -121.58027 34 ft 56 kts 180°
2026-05-01 08:57 38.69209 -121.58086 32 ft 37 kts 204°
2026-05-01 08:57 38.69039 -121.58216 34 ft 18 kts 231°
2026-05-01 08:58 38.69048 -121.58295 35 ft 6 kts 334°
2026-05-01 08:58 38.69102 -121.58296 35 ft 11 kts
2026-05-01 08:58 38.69179 -121.58343 33 ft 14 kts 296°
2026-05-01 08:58 38.69197 -121.58470 34 ft 15 kts 301°
2026-05-01 08:59 38.69290 -121.58532 32 ft 15 kts 348°
2026-05-01 08:59 38.69380 -121.58567 32 ft 14 kts 329°
2026-05-01 08:59 38.69465 -121.58618 32 ft 13 kts 344°
2026-05-01 08:59 38.69550 -121.58646 31 ft 13 kts 326°
2026-05-01 09:00 38.69587 -121.58742 35 ft 12 kts 271°
2026-05-01 09:00 38.69566 -121.58813 34 ft 3 kts 206°
2026-05-01 09:00 38.69539 -121.58812 34 ft 5 kts 179°
2026-05-01 09:00 38.69514 -121.58812 34 ft 0 kts 179°